User: anonymous   Login
Location: Unspecified
(0.0000°N, 0.0000°E)
Time: 15:12:42
(UTC+00:00)
Language:

OBJECT Z - Orbit

View from above orbital plane
View from above orbital plane
View from above satellite
View from above satellite

Ground track
Ground track

The orbit data is extracted from the following two-line orbital elements,

1 43134U 18004Z   21333.69137099  .00004190  00000-0  16334-3 0  9998
2 43134  97.3946  46.2729 0008422 358.4436   1.6775 15.26476175215866
Epoch (UTC): 29 November 2021 16:35:34
Eccentricity: 0.0008422
inclination: 97.3946°
perigee height: 480 km
apogee height: 492 km
right ascension of ascending node: 46.2729°
argument of perigee: 358.4436°
revolutions per day: 15.26476175
mean anomaly at epoch: 1.6775°
orbit number at epoch: 21586

The dashed part of the orbit path shows where the satellite is in the earth's shadow,  

DLR